Location: Unspecified
(0.0000°N, 0.0000°E)
Time: 07:29:27
(UTC+00:00)

ISS - Pass Details

Date: 28 April 2017
Orbit: 401 x 409 km, 51.6° (Epoch: 29 April)

Event Time Altitude Azimuth Distance (km) Brightness Sun altitude
Exits shadow 04:42:25 53° 209° (SSW) 502 -3.7 -18.2°
Maximum altitude 04:43:05 85° 128° (SE) 408 -3.9 -18.0°
Drops below altitude 10° 04:46:21 10° 37° (NE) 1,450 -0.3 -17.2°
Sets 04:48:24 0° 36° (NE) 2,304 0.8 -16.7°
